This demonstration page uses our WeatherBlox Daily Observations layout. Learn more.

Left ArrowRight Arrow

40.92945, -100.16068

Hourly Observations for October 26, 2016

Temp ( °F °C ) Dew Point ( °F °C ) Humidity (%) Winds ( mph kmh ) Pressure ( in mb ) Visibility ( mi km ) Precip ( " mm )
12:15 am 00:15 Clear with Mist and Fog 48 8.8 46 8 95 95 WNW 8 13 30.03 1017 4 6 N/A
12:35 am 00:35 Clear with Mist and Fog 48 8.9 46 8 94 94 WNW 8 13 30.03 1017 4 6 N/A
12:55 am 00:55 Clear with Mist and Fog 47 8.5 46 7.5 94 94 W 8 13 30.03 1017 4 6 N/A
1:15 am 01:15 Clear with Mist and Fog 48 9.1 47 8.1 94 94 WNW 9 15 30.03 1017 5 8 N/A
1:35 am 01:35 Clear 49 9.3 46 7.7 90 90 WNW 9 15 30.03 1017 7 11 N/A
1:55 am 01:55 Clear 48 9.1 46 7.6 90 90 W 10 17 30.03 1017 7 11 N/A
2:15 am 02:15 Clear 48 8.9 45 7.3 90 90 W 8 13 30.06 1018 7 11 N/A
2:35 am 02:35 Clear 49 9.2 46 7.6 90 90 WNW 8 13 30.06 1018 7 11 N/A
2:55 am 02:55 Clear 48 9 45 7.2 89 89 WNW 9 15 30.06 1018 7 11 N/A
3:15 am 03:15 Clear 48 9 45 7.1 88 88 WNW 12 19 30.06 1018 10 16 N/A
3:35 am 03:35 Clear 48 8.8 45 7 89 89 WNW 9 15 30.06 1018 10 16 N/A
3:55 am 03:55 Clear 48 8.7 45 7 89 89 WNW 10 17 30.06 1018 10 16 N/A
4:15 am 04:15 Clear 47 8.6 44 6.8 89 89 WNW 9 15 30.06 1018 10 16 N/A
4:35 am 04:35 Clear 48 8.8 44 6.6 86 86 WNW 8 13 30.06 1018 10 16 N/A
4:55 am 04:55 Clear 47 8.2 43 6.1 87 87 W 8 13 30.06 1018 10 16 N/A
5:15 am 05:15 Clear 46 7.5 43 5.9 90 90 W 8 13 30.06 1018 10 16 N/A
5:35 am 05:35 Clear 45 7.4 42 5.5 88 88 WNW 6 9 30.06 1018 10 16 N/A
5:55 am 05:55 Clear 45 7.3 42 5.4 88 88 WNW 7 11 30.12 1020 10 16 N/A
6:15 am 06:15 Clear 45 7 41 5 87 87 WNW 8 13 30.12 1020 10 16 N/A
6:35 am 06:35 Clear 45 7 40 4.7 85 85 WNW 8 13 30.12 1020 10 16 N/A
6:55 am 06:55 Clear 44 6.5 40 4.5 87 87 WNW 7 11 30.15 1021 10 16 N/A
7:15 am 07:15 Clear 44 6.6 40 4.6 87 87 WNW 8 13 30.15 1021 10 16 N/A
7:35 am 07:35 Clear 45 7 40 4.7 85 85 WNW 8 13 30.15 1021 10 16 N/A
7:55 am 07:55 Clear 44 6.9 41 4.8 87 87 WNW 9 15 30.15 1021 10 16 N/A
8:15 am 08:15 Sunny 45 7 40 4.7 85 85 WNW 9 15 30.15 1021 10 16 N/A
8:35 am 08:35 Sunny 45 7.2 41 4.9 85 85 WNW 9 15 30.18 1022 10 16 N/A
8:55 am 08:55 Sunny 46 7.6 41 5 84 84 WNW 10 17 30.18 1022 10 16 N/A
9:15 am 09:15 Sunny 47 8.1 42 5.5 84 84 WNW 9 15 30.15 1021 10 16 N/A
9:35 am 09:35 Sunny 48 9.1 43 6 81 81 WNW 10 17 30.18 1022 10 16 N/A
9:55 am 09:55 Sunny 51 10.5 44 6.6 77 77 WNW 8 13 30.18 1022 10 16 N/A
10:15 am 10:15 Sunny 54 12.1 45 7.3 73 73 WNW 10 17 30.15 1021 10 16 N/A
10:35 am 10:35 Sunny 56 13.1 45 7.4 69 69 NW 9 15 30.15 1021 10 16 N/A
10:55 am 10:55 Sunny 57 13.9 45 7.4 65 65 NW 10 17 30.15 1021 10 16 N/A
11:15 am 11:15 Sunny 59 15.2 46 7.9 62 62 NW 9 15 30.12 1020 10 16 N/A
11:35 am 11:35 Sunny 61 16.3 46 7.9 58 58 NW 7 11 30.12 1020 10 16 N/A
11:55 am 11:55 Sunny 63 17.4 47 8.5 56 56 W 8 13 30.12 1020 10 16 N/A
12:15 pm 12:15 Sunny 67 19.5 46 7.9 47 47 WNW 8 13 30.09 1019 10 16 N/A
12:35 pm 12:35 Sunny 70 21.2 43 5.9 37 37 NNW 13 20 30.09 1019 10 16 N/A
12:55 pm 12:55 Sunny 72 22 41 4.8 33 33 N 10 17 30.06 1018 10 16 N/A
1:15 pm 13:15 Sunny 73 22.6 40 4.7 31 31 N 7 11 30.06 1018 10 16 N/A
1:35 pm 13:35 Sunny 74 23.3 41 4.8 30 30 NNW 8 13 30.06 1018 10 16 N/A
1:55 pm 13:55 Sunny 74 23.3 40 4.2 29 29 NNW 9 15 30.03 1017 10 16 N/A
2:15 pm 14:15 Sunny 75 23.8 40 4.2 28 28 NW 14 22 30.03 1017 10 16 N/A
2:35 pm 14:35 Sunny 75 24 39 3.7 27 27 NW 13 20 30.03 1017 10 16 N/A
2:55 pm 14:55 Sunny 76 24.3 38 3.2 25 25 NW 10 17 30.03 1017 10 16 N/A
3:15 pm 15:15 Sunny 76 24.2 37 3 25 25 NW 6 9 30.03 1017 10 16 N/A
3:35 pm 15:35 Sunny 76 24.3 37 2.6 24 24 NW 8 13 29.97 1015 10 16 N/A
3:55 pm 15:55 Sunny 76 24.6 36 2.2 23 23 NNW 8 13 29.97 1015 7 11 N/A
4:15 pm 16:15 Sunny 76 24.7 35 1.4 22 22 NW 8 13 29.97 1015 10 16 N/A
4:35 pm 16:35 Sunny 76 24.6 34 1.3 22 22 NNW 5 7 29.97 1015 10 16 N/A
4:55 pm 16:55 Sunny 76 24.5 35 1.8 23 23 N 6 9 29.97 1015 10 16 N/A
5:15 pm 17:15 Sunny 75 24 35 1.6 23 23 Calm 30.00 1016 10 16 N/A
5:35 pm 17:35 Sunny 74 23.3 39 3.7 28 28 NW 3 6 30.00 1016 10 16 N/A
5:55 pm 17:55 Sunny 74 23.4 37 2.7 26 26 Calm 30.00 1016 7 11 N/A
6:15 pm 18:15 Sunny 73 22.5 36 2.4 27 27 Calm 30.00 1016 10 16 N/A
6:35 pm 18:35 Sunny 66 19.1 40 4.5 38 38 SSE 3 6 30.03 1017 7 11 N/A
6:55 pm 18:55 Clear 66 19 36 2.4 33 33 Calm 30.06 1018 10 16 N/A
7:15 pm 19:15 Hazy 64 17.9 38 3.1 37 37 ESE 3 6 30.06 1018 5 8 N/A
7:35 pm 19:35 Hazy 59 14.8 38 3.4 47 47 Calm 30.09 1019 5 8 N/A
7:55 pm 19:55 Hazy 57 13.8 39 4 52 52 ESE 5 7 30.12 1020 5 8 N/A
8:15 pm 20:15 Clear 57 14.1 37 3 47 47 SE 3 6 30.12 1020 7 11 N/A
8:35 pm 20:35 Mostly Cloudy with Haze 54 12.4 38 3.2 54 54 ESE 5 7 30.12 1020 2 2 N/A
8:55 pm 20:55 Clear 54 12.4 38 3.2 54 54 SE 3 6 30.12 1020 7 11 N/A
9:15 pm 21:15 Clear 56 13.3 37 3 50 50 SSE 3 6 30.12 1020 10 16 N/A
9:35 pm 21:35 Clear 52 11.2 38 3.3 59 59 SE 3 6 30.18 1022 10 16 N/A
9:55 pm 21:55 Clear 52 11.1 38 3.1 58 58 SSE 5 7 30.18 1022 10 16 N/A
10:15 pm 22:15 Clear 55 12.8 37 3 52 52 SSE 5 7 30.15 1021 10 16 N/A
10:35 pm 22:35 Clear 54 12.1 38 3.1 54 54 S 5 7 30.15 1021 10 16 N/A
10:55 pm 22:55 Clear 54 12.3 38 3.2 54 54 SSE 5 7 30.15 1021 10 16 N/A
11:15 pm 23:15 Clear 52 11.2 38 3.5 59 59 SSE 3 6 30.18 1022 10 16 N/A
11:35 pm 23:35 Hazy 54 12.1 38 3.5 56 56 SSE 3 6 30.15 1021 3 4 N/A
11:55 pm 23:55 Hazy 53 11.8 38 3.5 57 57 SE 3 6 30.15 1021 3 4 N/A

Powered by AerisWeather